Chino, CA

2:53 AM PST on February 22, 2017 (GMT -0800)
Chino

Weather History for KCNO - September, 2013

Change the Weather History Date:

Saturday, September 28, 2013

  Actual Average Record
Temperature  
Mean Temperature 70 °F -  
Max Temperature 91 °F 83 °F 100 °F (2010)
Min Temperature 50 °F 52 °F 50 °F (1998)
Cooling Degree Days 6    
Growing Degree Days 20 (Base 50)    
Moisture  
Dew Point 31 °F    
Average Humidity 31    
Maximum Humidity 59    
Minimum Humidity 5    
Precipitation  
Precipitation 0.00 in - - ()
Sea Level Pressure  
Sea Level Pressure 30.00 in    
Wind  
Wind Speed 3 mph (WNW)    
Max Wind Speed 15 mph    
Max Gust Speed 21 mph    
Visibility 9 miles    
Events      
Averages and records for this station are not official NWS values.
T = Trace of Precipitation, MM = Missing Value Source: NWS Daily Summary

Daily Weather History Graph

Daily Weather History Graph

Search for Another Location

Airport or City:

Trip Planner

Search our weather history database for the weather conditions in past years. The results will help you decide how hot, cold, wet, or windy it might be!

Date:

Astronomy

Sep. 28, 2013 Rise Set
Actual Time 6:43 AM PDT 6:38 PM PDT
Civil Twilight 6:18 AM PDT 7:03 PM PDT
Nautical Twilight 5:49 AM PDT 7:32 PM PDT
Astronomical Twilight 5:19 AM PDT 8:01 PM PDT
Moon 12:48 AM PDT (9/28) 2:47 PM PDT (9/28)
Length of Visible Light 12h 45m
Length of Day
11h 55m
Waning Crescent, 35% of the Moon is Illuminated
Sep 28
Waning Crescent
Oct 4
New
Oct 11
First Quarter
Oct 18
Full
Oct 26
Last Quarter

Hourly Weather History & Observations

Time (PDT) Temp. Dew Point Humidity Pressure Visibility Wind Dir Wind Speed Gust Speed Precip Events Conditions
12:53 AM 55.0 °F 37.0 °F 51% 30.00 in 8.0 mi North 3.5 mph - N/A   Clear
1:53 AM 55.0 °F 35.1 °F 47% 30.00 in 9.0 mi Calm Calm - N/A   Clear
2:53 AM 55.0 °F 32.0 °F 42% 29.99 in 9.0 mi Calm Calm - N/A   Clear
3:53 AM 51.1 °F 37.0 °F 59% 29.99 in 9.0 mi Calm Calm - N/A   Clear
4:53 AM 50.0 °F 36.0 °F 59% 30.01 in 8.0 mi Calm Calm - N/A   Clear
5:53 AM 52.0 °F 35.1 °F 53% 30.01 in 9.0 mi North 3.5 mph - N/A   Clear
6:53 AM 50.0 °F 34.0 °F 54% 30.03 in 10.0 mi Calm Calm - N/A   Clear
7:53 AM 55.9 °F 37.9 °F 51% 30.04 in 10.0 mi Calm Calm - N/A   Clear
8:53 AM 64.9 °F 36.0 °F 34% 30.04 in 10.0 mi Calm Calm - N/A   Clear
9:53 AM 73.0 °F 33.1 °F 23% 30.04 in 10.0 mi Calm Calm - N/A   Clear
10:53 AM 80.1 °F 27.0 °F 14% 30.04 in 10.0 mi Calm Calm - N/A   Clear
11:53 AM 84.0 °F 26.1 °F 12% 30.03 in 10.0 mi NNW 4.6 mph - N/A   Clear
12:53 PM 88.0 °F 21.9 °F 9% 30.00 in 10.0 mi ESE 3.5 mph - N/A   Clear
1:53 PM 89.1 °F 19.0 °F 8% 29.97 in 10.0 mi South 4.6 mph - N/A   Clear
2:53 PM 91.9 °F 21.0 °F 8% 29.96 in 10.0 mi North 3.5 mph - N/A   Clear
3:53 PM 91.0 °F 10.9 °F 5% 29.95 in 10.0 mi Variable 3.5 mph - N/A   Clear
4:53 PM 87.1 °F 28.9 °F 12% 29.94 in 10.0 mi SW 15.0 mph 20.7 mph N/A   Clear
5:53 PM 84.0 °F 28.9 °F 14% 29.95 in 10.0 mi SW 12.7 mph - N/A   Clear
6:53 PM 75.9 °F 34.0 °F 22% 29.97 in 10.0 mi West 11.5 mph - N/A   Clear
7:53 PM 69.1 °F 32.0 °F 25% 29.99 in 10.0 mi West 8.1 mph - N/A   Clear
8:53 PM 66.0 °F 34.0 °F 30% 30.01 in 10.0 mi WSW 3.5 mph - N/A   Clear
9:53 PM 64.9 °F 32.0 °F 29% 30.04 in 10.0 mi Calm Calm - N/A   Clear
10:53 PM 60.1 °F 36.0 °F 41% 30.05 in 8.0 mi NE 3.5 mph - N/A   Clear
11:53 PM 57.9 °F 39.9 °F 51% 30.05 in 6.0 mi Calm Calm - N/A   Haze